Total_Precipitation_Accumulation
0.98 1.05 0.90 0.73 0.54 0.68 0.88 0.84 0.70 0.70 0.73 0.81 0.85 0.89 0.86 0.60 0.40 0.33 0.38 0.57 0.57 0.54 0.57 0.60 0.61 0.58 0.60 0.55 0.52 0.50 0.49 0.50 0.48 0.43 0.36 0.30 0.28 0.24 0.20 0.11 0.07 0.03 0.01
1.12 1.12 1.03 0.90 0.81 0.88 1.00 0.94 0.81 0.88 0.87 0.84 0.63 0.56 0.58 0.58 0.50 0.34 0.30 0.42 0.48 0.41 0.44 0.52 0.59 0.60 0.68 0.69 0.62 0.57 0.53 0.51 0.44 0.36 0.34 0.31 0.26 0.23 0.27 0.31 0.36 0.11 0.02
0.97 1.05 1.02 0.97 0.99 1.01 1.00 0.90 0.83 0.89 0.77 0.62 0.49 0.43 0.43 0.42 0.40 0.36 0.27 0.29 0.39 0.38 0.34 0.39 0.45 0.48 0.55 0.68 0.70 0.59 0.48 0.42 0.35 0.28 0.24 0.25 0.23 0.16 0.17 0.26 0.33 0.17 0.07
0.76 0.83 0.79 0.82 0.83 0.86 0.85 0.77 0.69 0.70 0.69 0.66 0.59 0.47 0.50 0.48 0.44 0.44 0.39 0.34 0.34 0.34 0.47 0.48 0.46 0.42 0.47 0.59 0.68 0.61 0.46 0.36 0.28 0.24 0.21 0.18 0.18 0.15 0.12 0.14 0.17 0.16 0.10
0.68 0.74 0.72 0.70 0.67 0.67 0.66 0.60 0.59 0.59 0.58 0.57 0.50 0.46 0.45 0.44 0.40 0.38 0.44 0.36 0.37 0.33 0.39 0.41 0.39 0.37 0.42 0.49 0.66 0.80 0.68 0.46 0.32 0.28 0.32 0.31 0.24 0.17 0.15 0.17 0.13 0.12 0.12
0.60 0.59 0.56 0.52 0.48 0.46 0.45 0.46 0.51 0.53 0.48 0.46 0.34 0.32 0.33 0.28 0.28 0.31 0.29 0.23 0.26 0.27 0.30 0.31 0.31 0.25 0.32 0.41 0.55 0.67 0.72 0.64 0.47 0.37 0.39 0.41 0.36 0.24 0.13 0.11 0.10 0.10 0.10
0.51 0.46 0.40 0.39 0.35 0.32 0.32 0.32 0.35 0.38 0.35 0.34 0.32 0.26 0.21 0.18 0.18 0.20 0.17 0.14 0.16 0.25 0.29 0.27 0.24 0.31 0.33 0.32 0.31 0.37 0.50 0.61 0.58 0.48 0.44 0.45 0.46 0.34 0.18 0.12 0.09 0.09 0.08
0.40 0.38 0.36 0.35 0.33 0.30 0.26 0.27 0.28 0.26 0.24 0.24 0.23 0.18 0.13 0.12 0.12 0.09 0.13 0.13 0.13 0.23 0.28 0.25 0.23 0.28 0.26 0.27 0.27 0.24 0.32 0.41 0.51 0.53 0.49 0.43 0.44 0.39 0.29 0.20 0.14 0.11 0.09
0.26 0.29 0.32 0.35 0.34 0.30 0.27 0.26 0.24 0.21 0.18 0.16 0.16 0.13 0.09 0.06 0.06 0.07 0.10 0.13 0.13 0.17 0.17 0.19 0.20 0.19 0.23 0.22 0.21 0.20 0.24 0.25 0.38 0.55 0.59 0.52 0.45 0.44 0.43 0.38 0.29 0.20 0.14
0.16 0.18 0.23 0.29 0.29 0.30 0.29 0.22 0.21 0.24 0.21 0.14 0.13 0.12 0.08 0.08 0.10 0.08 0.10 0.13 0.16 0.15 0.13 0.12 0.12 0.15 0.19 0.20 0.23 0.22 0.20 0.21 0.31 0.51 0.62 0.60 0.54 0.49 0.53 0.57 0.65 0.61 0.42
0.20 0.17 0.17 0.22 0.26 0.32 0.36 0.32 0.29 0.26 0.23 0.17 0.14 0.16 0.13 0.08 0.11 0.13 0.10 0.11 0.15 0.09 0.06 0.05 0.04 0.07 0.11 0.17 0.25 0.28 0.22 0.26 0.33 0.42 0.50 0.56 0.58 0.59 0.60 0.65 0.83 0.98 0.97
0.28 0.27 0.27 0.29 0.33 0.32 0.33 0.34 0.36 0.33 0.29 0.25 0.17 0.17 0.22 0.13 0.07 0.11 0.11 0.12 0.12 0.04 0.04 0.07 0.08 0.11 0.15 0.27 0.31 0.27 0.30 0.34 0.35 0.38 0.41 0.43 0.47 0.52 0.60 0.71 0.83 0.97 1.09
0.27 0.29 0.29 0.33 0.37 0.36 0.34 0.32 0.32 0.36 0.40 0.37 0.26 0.17 0.16 0.17 0.12 0.09 0.08 0.07 0.08 0.08 0.11 0.13 0.16 0.24 0.31 0.48 0.40 0.35 0.35 0.35 0.35 0.37 0.38 0.36 0.37 0.40 0.44 0.54 0.68 0.82 0.98
0.29 0.27 0.25 0.25 0.27 0.31 0.32 0.29 0.26 0.27 0.32 0.39 0.38 0.35 0.30 0.19 0.17 0.11 0.08 0.09 0.11 0.15 0.19 0.18 0.24 0.36 0.51 0.59 0.55 0.38 0.24 0.18 0.15 0.15 0.17 0.20 0.22 0.25 0.30 0.35 0.43 0.55 0.66
0.26 0.24 0.22 0.20 0.19 0.22 0.26 0.27 0.25 0.26 0.26 0.27 0.33 0.43 0.43 0.32 0.24 0.19 0.17 0.17 0.25 0.22 0.26 0.36 0.41 0.48 0.46 0.49 0.40 0.32 0.13 0.09 0.10 0.08 0.07 0.08 0.11 0.14 0.18 0.20 0.23 0.30 0.39
0.21 0.19 0.16 0.13 0.13 0.13 0.16 0.20 0.23 0.27 0.31 0.34 0.36 0.41 0.49 0.50 0.43 0.36 0.32 0.30 0.36 0.34 0.36 0.43 0.50 0.48 0.38 0.26 0.19 0.20 0.12 0.09 0.07 0.06 0.05 0.05 0.06 0.07 0.07 0.10 0.11 0.12 0.15
0.20 0.18 0.16 0.13 0.11 0.11 0.13 0.16 0.19 0.25 0.31 0.40 0.49 0.50 0.48 0.58 0.62 0.56 0.52 0.46 0.44 0.45 0.42 0.41 0.48 0.42 0.31 0.19 0.14 0.12 0.08 0.06 0.04 0.05 0.04 0.03 0.04 0.05 0.05 0.06 0.08 0.08 0.08
0.20 0.20 0.18 0.16 0.11 0.09 0.10 0.12 0.14 0.18 0.26 0.36 0.52 0.68 0.69 0.64 0.61 0.57 0.54 0.53 0.53 0.57 0.54 0.43 0.41 0.37 0.31 0.25 0.19 0.14 0.09 0.05 0.04 0.08 0.08 0.06 0.05 0.05 0.05 0.04 0.05 0.06 0.07
0.15 0.18 0.18 0.17 0.15 0.13 0.11 0.10 0.10 0.12 0.17 0.22 0.34 0.57 0.76 0.89 0.82 0.62 0.51 0.47 0.51 0.59 0.60 0.51 0.44 0.43 0.37 0.28 0.20 0.14 0.11 0.07 0.05 0.06 0.07 0.06 0.06 0.05 0.04 0.03 0.03 0.03 0.03
0.08 0.13 0.17 0.19 0.17 0.16 0.14 0.12 0.12 0.12 0.13 0.14 0.21 0.31 0.44 0.65 0.82 0.86 0.73 0.58 0.54 0.57 0.57 0.53 0.56 0.63 0.55 0.37 0.21 0.15 0.13 0.09 0.06 0.03 0.04 0.03 0.03 0.02 0.02 0.02 0.02 0.02 0.02
0.07 0.13 0.19 0.21 0.20 0.18 0.12 0.13 0.16 0.13 0.14 0.14 0.15 0.19 0.22 0.30 0.44 0.61 0.73 0.77 0.72 0.63 0.62 0.61 0.74 0.98 0.88 0.61 0.33 0.17 0.13 0.10 0.07 0.04 0.03 0.02 0.01 0.01 0.01 0.01 0.01 0.01 0.01
0.12 0.15 0.19 0.23 0.23 0.17 0.12 0.11 0.13 0.16 0.19 0.21 0.21 0.20 0.17 0.17 0.21 0.32 0.45 0.59 0.73 0.74 0.71 0.70 0.81 0.96 0.93 0.73 0.48 0.27 0.13 0.08 0.10 0.08 0.05 0.03 0.02 0.01 0.01 0.00 0.01 0.01 0.01
0.16 0.18 0.19 0.27 0.31 0.30 0.21 0.13 0.09 0.15 0.20 0.25 0.28 0.28 0.19 0.11 0.14 0.18 0.25 0.35 0.44 0.56 0.66 0.71 0.78 0.89 0.94 0.80 0.56 0.32 0.18 0.13 0.08 0.07 0.05 0.04 0.01 0.01 0.00 0.00 0.01 0.01 0.00
0.21 0.21 0.22 0.27 0.36 0.36 0.30 0.21 0.14 0.16 0.22 0.26 0.29 0.29 0.25 0.19 0.16 0.16 0.19 0.22 0.27 0.32 0.40 0.51 0.62 0.75 0.83 0.80 0.62 0.45 0.33 0.22 0.14 0.10 0.05 0.04 0.02 0.01 0.00 0.00 0.01 0.00 0.00
0.24 0.23 0.22 0.26 0.34 0.40 0.35 0.24 0.20 0.22 0.25 0.27 0.28 0.29 0.29 0.25 0.18 0.12 0.16 0.18 0.21 0.25 0.29 0.36 0.46 0.58 0.66 0.69 0.66 0.51 0.37 0.21 0.17 0.14 0.05 0.02 0.02 0.02 0.02 0.01 0.00 0.00 0.00
0.29 0.25 0.22 0.24 0.30 0.41 0.41 0.27 0.23 0.25 0.29 0.32 0.40 0.41 0.35 0.31 0.24 0.13 0.13 0.15 0.16 0.19 0.22 0.24 0.29 0.38 0.45 0.49 0.53 0.44 0.29 0.16 0.11 0.10 0.05 0.02 0.02 0.03 0.04 0.02 0.00 0.00 0.00